Location: Hannover
(52.3723°N, 9.7339°E)
Time: 18:14:57
(UTC+02:00)

ISS - Pass Details

Date: 29 March 2019
Orbit: 408 x 410 km, 51.6° (Epoch: 20 April)

Event Time Altitude Azimuth Distance (km) Brightness Sun altitude
Rises 20:04:21 0° 266° (W) 2,339 1.3 -11.9°
Reaches altitude 10° 20:06:26 10° 265° (W) 1,477 0.1 -12.2°
Maximum altitude 20:09:45 80° 180° (S) 421 -3.9 -12.6°
Enters shadow 20:11:42 23° 94° (E) 935 -2.6 -12.9°
